Location: Ferchesar
(52.6477°N, 12.4298°E)
Time: 06:42:12
(UTC+02:00)

Transit 4A - Pass Details

Date: 26 February 2021
Orbit: 869 x 976 km, 66.8° (Epoch: 12 April)

Event Time Altitude Azimuth Distance (km) Brightness Sun altitude
Rises 14:58:56 0° 276° (W) 3,656 11.5 20.4°
Reaches altitude 10° 15:02:01 10° 290° (WNW) 2,698 10.7 20.1°
Maximum altitude 15:07:07 25° 344° (NNW) 1,820 9.3 19.6°
Drops below altitude 10° 15:12:07 10° 38° (NE) 2,646 9.8 19.1°
Sets 15:15:08 0° 52° (NE) 3,571 10.3 18.8°
